"Pseudo-MPEC" for P10L0CW

Created 2019 Jan 13 13:18:24 UT using Find_Orb

Click here for an explanation of pseudo-MPECs

 
 Astrometry: 
     P10L0CW  C2018 12 31rCs0,-GEWgt@,2r)G[g)2/AstrometryY-at=x8yK6L[BZ)A7Jo1F51
     P10L0CW  C2019 01 04t'N`6-mR\1*N0Ud]7`qt(bxwM?yK2_o`@CGV+n.gYmojHZ'9tR3nF51
     P10L0CW  C2019 01 04rlbX2_YCjN+1-x[QGo2:id(lXnFTSSFKFb*2HcUlkaXy_9*`.=UwF51
     P10L0CW  C2019 01 04n*wn0CWnU%1eqredacted;#LOVeB`PW[(9rKSIo!-loqiLex+w=#F51
     P10L0CW |C2019 01 05JiY($;AvANy6O,\x$%KCWV@u3tt*M#/p67tRXJs,Ic5Vy34X8W5I807
     P10L0CW |C2019 01 05eVgtMX1!0CL])O+S+s1D+Fm71]=`H(p5VwmAyWd%nmTne:Gqg2oL807
     P10L0CW |C2019 01 05*G=7tx^;Qp0dM3mX4dG3LZO6$(q.P4bAb:%$EO^/:eN'X`;B`bU3807
     P10L0CW KC2019 01 07bq%8%?q]?GAN;,VB?=]aWqDv/GwvO_Gld9K^1bW2]click_Miob3474
     P10L0CW KC2019 01 07)^65f?\2^v7vay-s\lF%bohu!lf.A!k%7K:WjQi(MZX4Yea;X-A@474
     P10L0CW KC2019 01 07ev7V!([p`LG).tdgbCRI9d04+fw!wR7=(NM]V/Sp[CN0jacmT'#h474
     P10L0CW KC2019 01 07$^yRe]ct6Y/kYSswcd9Wm.56tX!SM@kLMWc6QToaE):ZW\M8:uO1474
     P10L0CW |C2019 01 091`@^q)NI]wd\XU;57h'+='4Nherev;lE.#+N;W2iZIgD`G;bk,+M807
     P10L0CW |C2019 01 09l#G-)vd;eDdRBJx?CLGpJKDG[!m^HG?/P;skZq0g94A7T][Z_QR/807
     P10L0CW |C2019 01 09v$o/Ud]ETd2nyS_-jtg)Ls8(o@GYqG^@09+mm*XJWI/m*+w0XilM807
     P10L0CW  C2019 01 09.35219 08 56 38.14 -00 30 57.0    ~19AI 20.7 GVNEOCPI52
     P10L0CW  C2019 01 09.35860 08 56 36.97 -00 30 23.6    ~19AI 20.6 GVNEOCPI52
     P10L0CW  C2019 01 09.37186 08 56 34.62 -00 29 14.7    ~19AI 20.5 GVNEOCPI52
     P10L0CW  C2019 01 09.37713 08 56 33.67 -00 28 47.1    ~19AI 20.9 GVNEOCPI52
     P10L0CW |C2019 01 12c$:Vc-Jmc\c39fwWZ[1ktT]!J*bYCgMP[$xx`a2SNcdbDZMi.'c(807
     P10L0CW |C2019 01 12ZT+eicch#$TVRqtn;TAfor^bIdL+o?mcxwU^xG%f%^t[jk0_`dZD807
     P10L0CW  C2019 01 12L5uM4M\riZsI!x-O4QAD6'.q5.iBwUo2+vXXr!lF$GDewX=rVSSeF51
     P10L0CW  C2019 01 12.49785 08 46 58.35 +04 15 29.7    ~1CDI 20.4 GVNEOCPI52
     P10L0CW  C2019 01 12.49861 08 46 58.22 +04 15 34.5    ~1CDI 20.6 GVNEOCPI52
     P10L0CW  C2019 01 12.49937 08 46 58.07 +04 15 38.8    ~1CDI 20.2 GVNEOCPI52
     P10L0CW  C2019 01 12dXFPcBQuT#v#!HHfyZ)q77$Vo8d\:;FLaQi)(]_o8cJ:ej9ytdjeF51
     P10L0CW  C2019 01 12.50014 08 46 57.95 +04 15 43.3    ~1CDI 20.9 GVNEOCPI52
     P10L0CW  C2019 01 12u=!hHEK*ccj2!-\;rMTK!rf:A'qpbiK*kpUv4@FsM)4y0BJ1:fw/F51
     P10L0CW  C2019 01 12F%07v@gd8-d2ZGF3WCexplanation8h7$?F;KPZN*`N0K?`k-J):F51

Station data:
(474) Mount John Observatory, Lake Tekapo  (S43.987388 E170.464960)  New
   Zealand.  Observers A. C. Gilmore, P. M. Kilmartin. Measurer P. M.
   Kilmartin. 1.0-m f/7.7 reflector + CCD.
(807) Cerro Tololo Observatory, La Serena  (S30.169136 W70.805900)  Chile.
   1.5-m Ritchey-Chrétien.
(F51) Pan-STARRS 1, Haleakala  (N20.707235 W156.255910)  US/Hawaii.
   Observers N. Primak, A. Schultz, S. Watters, J. Thiel, T. Goggia. Measurer
   PS1 Science Consortium. 1.8-m Ritchey-Chrétien + CCD.
(I52) Steward Observatory, Mt. Lemmon Station  (N32.442547 W110.788920)
   US/Arizona.  Observers B. M. Africano, E. J. Christensen, G. A. Farneth,
   D. C. Fuls, A. R. Gibbs, A. D. Grauer, H. Groeller, J. A. Johnson, R. A.
   Kowalski, S. M. Larson, G. J. Leonard, R. L. Seaman, F. C. Shelly. 1.0-m
   reflector + CCD.

Orbital elements:  P10L0CW
   Perihelion 2018 Dec 17.747131 +/- 0.429 TT = 17:55:52 (JD 2458470.247131)
Epoch 2019 Jan 12.0 TT = JDT 2458495.5   Earth MOID: 0.5616   Ma: 0.0848
M   8.70358279 +/- 0.20             (J2000 ecliptic)          AutoNEOCP
n   0.34465719 +/- 0.00207          Peri.  339.88436 +/- 0.24
a   2.01470355 +/- 0.00807          Node   121.03928 +/- 0.00025
e   0.2409261 +/- 0.00256           Incl.   73.39046 +/- 0.08
P   2.86                   H 20.1   G  0.15   U  8.6  
q 1.52930871 +/- 0.000965    Q 2.50009838 +/- 0.015
From 28 observations 2018 Dec. 31-2019 Jan. 12; mean residual 0".18
Residuals in arcseconds: 
181231 F51  .02+  .11-    190107 474  .30+  .41+    190112 F51  .02+  .08-    
190104 F51  .03+  .13-    190109 807  .05-  .11+    190112 I52  .37-  .34-    
190104 F51  .01-  .02+    190109 807  .04+  .03+    190112 I52  .06-  .11+    
190104 F51  .03-  .14-    190109 807  .03+  .06+    190112 I52  .05-  .07+    
190105 807  .03-  .43+    190109 I52  .25+  .25-    190112 F51  .02+  .09-    
190105 807  .11-  .25+    190109 I52  .14-  .16-    190112 I52  .43+  .18+    
190105 807  .04-  .10+    190109 I52  .14+  .20-    190112 F51  .02+  .06+    
190107 474  .01-  .44-    190109 I52  .01+  .01-    190112 F51  .02-  .05-    
190107 474  .02-  .11+    190112 807  .10-  .15+    
190107 474  .16-  .29-    190112 807  .03-  .09+    

Ephemerides (geocentric):
Date (UTC) HH   RA              Dec         delta   r     elong  mag " sig PA
---- -- -- --  -------------   -----------  ------ ------ -----  --- ---- ---
2019 01 13 13  08 43 32.241   +05 56 21.26  .58393 1.5402 157.8 20.7 .124  28
2019 01 13 14  08 43 23.838   +06 00 25.66  .58369 1.5402 158.0 20.7 .128  27
2019 01 13 15  08 43 15.424   +06 04 30.29  .58345 1.5402 158.1 20.7 .131  26
2019 01 13 16  08 43 06.998   +06 08 35.15  .58321 1.5403 158.2 20.7 .135  26
2019 01 13 17  08 42 58.561   +06 12 40.24  .58297 1.5403 158.3 20.7 .139  25
2019 01 13 18  08 42 50.113   +06 16 45.55  .58274 1.5403 158.4 20.7 .144  25
2019 01 13 19  08 42 41.653   +06 20 51.10  .58250 1.5404 158.5 20.7 .148  24
2019 01 13 20  08 42 33.182   +06 24 56.86  .58227 1.5404 158.6 20.7 .152  23
2019 01 13 21  08 42 24.700   +06 29 02.86  .58203 1.5404 158.7 20.7 .156  23
2019 01 13 22  08 42 16.206   +06 33 09.08  .58180 1.5405 158.8 20.7 .161  22
2019 01 13 23  08 42 07.701   +06 37 15.52  .58157 1.5405 158.9 20.7 .165  22
2019 01 14 00  08 41 59.185   +06 41 22.18  .58135 1.5405 159.0 20.7 .170  21
2019 01 14 01  08 41 50.657   +06 45 29.06  .58112 1.5406 159.2 20.7 .174  21
2019 01 14 02  08 41 42.118   +06 49 36.16  .58089 1.5406 159.3 20.7 .179  20
2019 01 14 03  08 41 33.568   +06 53 43.48  .58067 1.5406 159.4 20.7 .184  20
2019 01 14 04  08 41 25.006   +06 57 51.01  .58045 1.5407 159.5 20.6 .188  19
2019 01 14 05  08 41 16.433   +07 01 58.76  .58022 1.5407 159.6 20.6 .193  19
2019 01 14 06  08 41 07.849   +07 06 06.73  .58000 1.5407 159.7 20.6 .198  18
2019 01 14 07  08 40 59.254   +07 10 14.90  .57978 1.5408 159.8 20.6 .203  18
2019 01 14 08  08 40 50.647   +07 14 23.29  .57957 1.5408 159.9 20.6 .208  17
2019 01 14 09  08 40 42.029   +07 18 31.89  .57935 1.5408 160.0 20.6 .213  17
2019 01 14 10  08 40 33.400   +07 22 40.70  .57914 1.5409 160.1 20.6 .219  16
2019 01 14 11  08 40 24.759   +07 26 49.72  .57892 1.5409 160.3 20.6 .224  16
2019 01 14 12  08 40 16.107   +07 30 58.94  .57871 1.5409 160.4 20.6 .229  16
2019 01 14 13  08 40 07.444   +07 35 08.37  .57850 1.5410 160.5 20.6 .235  15
2019 01 14 14  08 39 58.770   +07 39 18.00  .57829 1.5410 160.6 20.6 .240  15
2019 01 14 15  08 39 50.085   +07 43 27.84  .57808 1.5410 160.7 20.6 .246  14
2019 01 14 16  08 39 41.389   +07 47 37.88  .57787 1.5411 160.8 20.6 .252  14
2019 01 14 17  08 39 32.681   +07 51 48.12  .57767 1.5411 160.9 20.6 .257  14
2019 01 14 18  08 39 23.962   +07 55 58.56  .57746 1.5411 161.0 20.6 .263  13
2019 01 14 19  08 39 15.232   +08 00 09.19  .57726 1.5412 161.1 20.6 .269  13
2019 01 14 20  08 39 06.491   +08 04 20.02  .57706 1.5412 161.3 20.6 .275  13
2019 01 14 21  08 38 57.739   +08 08 31.05  .57686 1.5413 161.4 20.6 .281  12
2019 01 14 22  08 38 48.975   +08 12 42.27  .57666 1.5413 161.5 20.6 .287  12
2019 01 14 23  08 38 40.201   +08 16 53.69  .57646 1.5413 161.6 20.6 .293  12
2019 01 15 00  08 38 31.415   +08 21 05.30  .57627 1.5414 161.7 20.6 .300  11
2019 01 15 01  08 38 22.618   +08 25 17.09  .57607 1.5414 161.8 20.6 .306  11
2019 01 15 02  08 38 13.811   +08 29 29.08  .57588 1.5414 161.9 20.6 .313  11
2019 01 15 03  08 38 04.992   +08 33 41.25  .57569 1.5415 162.0 20.6 .319  10
2019 01 15 04  08 37 56.162   +08 37 53.61  .57550 1.5415 162.1 20.6 .326  10
2019 01 15 05  08 37 47.321   +08 42 06.15  .57531 1.5415 162.3 20.6 .332  10
2019 01 15 06  08 37 38.469   +08 46 18.88  .57512 1.5416 162.4 20.6 .339   9
2019 01 15 07  08 37 29.606   +08 50 31.79  .57494 1.5416 162.5 20.6 .346   9
2019 01 15 08  08 37 20.732   +08 54 44.87  .57475 1.5416 162.6 20.6 .353   9
2019 01 15 09  08 37 11.847   +08 58 58.14  .57457 1.5417 162.7 20.6 .360   9
2019 01 15 10  08 37 02.951   +09 03 11.59  .57439 1.5417 162.8 20.6 .367   8
2019 01 15 11  08 36 54.044   +09 07 25.21  .57421 1.5417 162.9 20.5 .374   8
2019 01 15 12  08 36 45.126   +09 11 39.01  .57403 1.5418 163.0 20.5 .382   8